Regional Weather Roundup
Issued by NWS

Home | Current Version | Previous Version | Graphics & Text | Print | Product List | Glossary On
Versions: 1 2 3 4 5 6 7 8 9 10 11 12 13 14 15 16 17 18 19 20 21 22 23 24 25 26 27 28 29 30 31 32 33 34 35 36 37 38 39 40 41 42 43 44 45 46 47 48 49 50
000
ASUS43 KLOT 190402
RWRIL

ILLINOIS REGIONAL WEATHER ROUNDUP
NATIONAL WEATHER SERVICE CHICAGO/ROMEOVILLE IL
1100 PM CDT SAT APR 18 2015

NOTE: "FAIR" INDICATES FEW OR NO CLOUDS BELOW 12,000 FEET WITH NO
SIGNIFICANT WEATHER AND/OR OBSTRUCTIONS TO VISIBILITY.

* THESE STATIONS ARE NOT UNDER NWS QUALITY CONTROL. THEY ALSO MAY NOT
  REPORT WEATHER SUCH AS PRECIPITATION OR FOG.

ILZ001-002-007-009-015-016-024-190500-
NORTHWEST ILLINOIS

CITY           SKY/WX    TMP DP  RH WIND       PRES   REMARKS
MOLINE         MOCLDY    60  45  57 E12       29.89F
STERLING*      PTCLDY    55  34  44 E13       29.93F
$$

ILZ003-004-008-010-011-017-018-190500-
NORTH CENTRAL ILLINOIS

CITY           SKY/WX    TMP DP  RH WIND       PRES   REMARKS
ROCKFORD       MOCLDY    53  31  42 E15       29.97F
$$

ILZ005-006-012>014-019>023-190500-
NORTHEAST ILLINOIS

CITY           SKY/WX    TMP DP  RH WIND       PRES   REMARKS
CHICAGO-OHARE  CLOUDY    49  34  56 NE8       29.99F
CHICAGO-MIDWAY CLOUDY    52  37  56 NE3       29.99F
AURORA         MOCLDY    53  33  46 E13       29.96F
WAUKEGAN       PTCLDY    48  32  53 NE10      30.01F
DUPAGE AIRPORT MOCLDY    51  34  52 NE10      29.98F
WHEELING       PTCLDY    49  33  54 NE6       30.00F
NORTHERLY ISL    N/A     48  38  68 N7          N/A
$$

LMZ740>746-190500-
SOUTHERN LAKE MICHIGAN

STATION/POSITION SKY/WX   TEMP    WIND        PRES    VSBY  WAVE
                          AIR SEA DIR/SP/G                  HT/PER
                          (F)     (DEG/KT/KT) (MB)    (MI)  (FT/S)
HARRISON CRIB              44     340/ 11/ 12   N/A
BURNHAM HARBOR             48     360/  6/ 14   N/A
CALUMET HARBOR             46     350/  5/ 10   N/A
BURNS HARBOR               43      CALM  /  2 1017.3S
MICHIGAN CITY              43      CALM  /  1   N/A
MICHIGAN CITY 6N           42 46   CALM  /  2   N/A           3/ 6
$$

ILZ025>027-034>036-040-047-049-050-058-095>099-190500-
WEST-CENTRAL ILLINOIS

CITY           SKY/WX    TMP DP  RH WIND       PRES   REMARKS
QUINCY         TSTM      64  57  78 W10       29.86F
$$

ILZ028>032-037-038-041>044-048-051>054-059>061-190500-
CENTRAL ILLINOIS

CITY           SKY/WX    TMP DP  RH WIND       PRES   REMARKS
DECATUR        MOCLDY    59  48  67 E5        29.90F
PEORIA         PTCLDY    65  50  58 E9        29.90F
SPRINGFIELD    MOCLDY    66  50  56 E7        29.88F
TAYLORVILLE    NOT AVBL
$$

ILZ033-039-045-046-055>057-062-063-190500-
EAST-CENTRAL ILLINOIS

CITY           SKY/WX    TMP DP  RH WIND       PRES   REMARKS
CHAMPAIGN      MOCLDY    61  48  62 E8        29.92F
MATTOON        MOCLDY    66  45  46 E8        29.89F
$$

ILZ079-100>102-190500-
SOUTHWEST ILLINOIS

CITY           SKY/WX    TMP DP  RH WIND       PRES   REMARKS
BELLEVILLE     CLOUDY    69  58  68 E5        29.83F
CAHOKIA*       MOCLDY    68  56  65 E6        29.84F
$$

ILZ064>066-069>071-074>076-080>082-084>086-088>090-092>094-190500-
SOUTH-CENTRAL ILLINOIS

CITY           SKY/WX    TMP DP  RH WIND       PRES   REMARKS
CARBONDALE     CLOUDY    67  57  70 E5        29.84F
MT. VERNON     MOCLDY    64  52  63 NE6       29.87F
$$

ILZ067-068-072-073-078-083-087-091-190500-
SOUTHEAST ILLINOIS

CITY           SKY/WX    TMP DP  RH WIND       PRES   REMARKS
LAWRENCEVILLE  MOCLDY    64  48  56 E7        29.89F
$$

ABBREVIATIONS USED IN REMARKS
   TC - TEMPERATURE IN CELSIUS
  WCI - WIND CHILL INDEX
   HX - HEAT INDEX
  VSB - VISIBILITY
$$




USA.gov is the U.S. government's official web portal to all federal, state and local government web resources and services.